owner,sensor,date,latitude,longitude,sea_surface_height_above_sea_level,qcFlag 
TCOON,ioos:station:TCOON:013:1,2017-09-01T00:18:00Z,27.4847,-97.3181,0.65,1111122 
TCOON,ioos:station:TCOON:013:1,2017-09-01T01:18:00Z,27.4847,-97.3181,0.644,1111122 
TCOON,ioos:station:TCOON:013:1,2017-09-01T02:18:00Z,27.4847,-97.3181,0.639,1111122 
TCOON,ioos:station:TCOON:013:1,2017-09-01T03:18:00Z,27.4847,-97.3181,0.638,1111122 
TCOON,ioos:station:TCOON:013:1,2017-09-01T04:18:00Z,27.4847,-97.3181,0.639,1111122 
TCOON,ioos:station:TCOON:013:1,2017-09-01T05:18:00Z,27.4847,-97.3181,0.638,1111122 
TCOON,ioos:station:TCOON:013:1,2017-09-01T06:18:00Z,27.4847,-97.3181,0.636,1111122 
TCOON,ioos:station:TCOON:013:1,2017-09-01T07:18:00Z,27.4847,-97.3181,0.634,1111122 
TCOON,ioos:station:TCOON:013:1,2017-09-01T08:18:00Z,27.4847,-97.3181,0.632,1111122 
TCOON,ioos:station:TCOON:013:1,2017-09-01T09:18:00Z,27.4847,-97.3181,0.629,1111122 
TCOON,ioos:station:TCOON:013:1,2017-09-01T10:18:00Z,27.4847,-97.3181,0.628,1111122 
TCOON,ioos:station:TCOON:013:1,2017-09-01T11:18:00Z,27.4847,-97.3181,0.627,1111122 
TCOON,ioos:station:TCOON:013:1,2017-09-01T12:18:00Z,27.4847,-97.3181,0.628,1111122 
TCOON,ioos:station:TCOON:013:1,2017-09-01T13:18:00Z,27.4847,-97.3181,0.631,1111122 
TCOON,ioos:station:TCOON:013:1,2017-09-01T14:18:00Z,27.4847,-97.3181,0.634,1111122 
TCOON,ioos:station:TCOON:013:1,2017-09-01T15:18:00Z,27.4847,-97.3181,0.638,1111122 
TCOON,ioos:station:TCOON:013:1,2017-09-01T16:18:00Z,27.4847,-97.3181,0.642,1111122 
TCOON,ioos:station:TCOON:013:1,2017-09-01T17:18:00Z,27.4847,-97.3181,0.652,1111122 
TCOON,ioos:station:TCOON:013:1,2017-09-01T18:18:00Z,27.4847,-97.3181,0.657,1111122 
TCOON,ioos:station:TCOON:013:1,2017-09-01T19:18:00Z,27.4847,-97.3181,0.659,1111122 
TCOON,ioos:station:TCOON:013:1,2017-09-01T20:18:00Z,27.4847,-97.3181,0.659,1111122 
TCOON,ioos:station:TCOON:013:1,2017-09-01T21:18:00Z,27.4847,-97.3181,0.657,1111122 
TCOON,ioos:station:TCOON:013:1,2017-09-01T22:18:00Z,27.4847,-97.3181,0.65,1111122 
TCOON,ioos:station:TCOON:013:1,2017-09-02T00:18:00Z,27.4847,-97.3181,0.648,1111122 
TCOON,ioos:station:TCOON:013:1,2017-09-02T01:18:00Z,27.4847,-97.3181,0.642,1111122 
TCOON,ioos:station:TCOON:013:1,2017-09-02T02:18:00Z,27.4847,-97.3181,0.638,1111122 
TCOON,ioos:station:TCOON:013:1,2017-09-02T03:18:00Z,27.4847,-97.3181,0.636,1111122 
TCOON,ioos:station:TCOON:013:1,2017-09-02T04:18:00Z,27.4847,-97.3181,0.631,1111122 
TCOON,ioos:station:TCOON:013:1,2017-09-02T05:18:00Z,27.4847,-97.3181,0.63,1111122 
TCOON,ioos:station:TCOON:013:1,2017-09-02T06:18:00Z,27.4847,-97.3181,0.629,1111122 
TCOON,ioos:station:TCOON:013:1,2017-09-02T07:18:00Z,27.4847,-97.3181,0.628,1111122 
TCOON,ioos:station:TCOON:013:1,2017-09-02T08:18:00Z,27.4847,-97.3181,0.628,1111122 
TCOON,ioos:station:TCOON:013:1,2017-09-02T09:18:00Z,27.4847,-97.3181,0.627,1111122 
TCOON,ioos:station:TCOON:013:1,2017-09-02T10:18:00Z,27.4847,-97.3181,0.626,1111122 
TCOON,ioos:station:TCOON:013:1,2017-09-02T11:18:00Z,27.4847,-97.3181,0.626,1111122 
TCOON,ioos:station:TCOON:013:1,2017-09-02T12:18:00Z,27.4847,-97.3181,0.628,1111122 
TCOON,ioos:station:TCOON:013:1,2017-09-02T13:18:00Z,27.4847,-97.3181,0.635,1111122 
TCOON,ioos:station:TCOON:013:1,2017-09-02T14:18:00Z,27.4847,-97.3181,0.644,1111122 
TCOON,ioos:station:TCOON:013:1,2017-09-02T15:18:00Z,27.4847,-97.3181,0.654,1111122 
TCOON,ioos:station:TCOON:013:1,2017-09-02T16:18:00Z,27.4847,-97.3181,0.661,1111122 
TCOON,ioos:station:TCOON:013:1,2017-09-02T17:18:00Z,27.4847,-97.3181,0.667,1111122 
TCOON,ioos:station:TCOON:013:1,2017-09-02T18:18:00Z,27.4847,-97.3181,0.647,1111122 
TCOON,ioos:station:TCOON:013:1,2017-09-02T19:18:00Z,27.4847,-97.3181,0.672,1111122 
TCOON,ioos:station:TCOON:013:1,2017-09-02T20:18:00Z,27.4847,-97.3181,0.671,1111122 
TCOON,ioos:station:TCOON:013:1,2017-09-02T21:18:00Z,27.4847,-97.3181,0.668,1111122 
TCOON,ioos:station:TCOON:013:1,2017-09-02T22:18:00Z,27.4847,-97.3181,0.666,1111122 
TCOON,ioos:station:TCOON:013:1,2017-09-02T23:18:00Z,27.4847,-97.3181,0.661,1111122 
TCOON,ioos:station:TCOON:013:1,2017-09-03T00:18:00Z,27.4847,-97.3181,0.658,1111122 
TCOON,ioos:station:TCOON:013:1,2017-09-03T01:18:00Z,27.4847,-97.3181,0.651,1111122 
TCOON,ioos:station:TCOON:013:1,2017-09-03T02:18:00Z,27.4847,-97.3181,0.644,1111122 
TCOON,ioos:station:TCOON:013:1,2017-09-03T03:18:00Z,27.4847,-97.3181,0.637,1111122 
TCOON,ioos:station:TCOON:013:1,2017-09-03T04:18:00Z,27.4847,-97.3181,0.634,1111122 
TCOON,ioos:station:TCOON:013:1,2017-09-03T05:18:00Z,27.4847,-97.3181,0.627,1111122 
TCOON,ioos:station:TCOON:013:1,2017-09-03T06:18:00Z,27.4847,-97.3181,0.625,1111122 
TCOON,ioos:station:TCOON:013:1,2017-09-03T07:18:00Z,27.4847,-97.3181,0.624,1111122 
TCOON,ioos:station:TCOON:013:1,2017-09-03T08:18:00Z,27.4847,-97.3181,0.623,1111122 
TCOON,ioos:station:TCOON:013:1,2017-09-03T09:18:00Z,27.4847,-97.3181,0.622,1111122 
TCOON,ioos:station:TCOON:013:1,2017-09-03T10:18:00Z,27.4847,-97.3181,0.622,1111122 
TCOON,ioos:station:TCOON:013:1,2017-09-03T11:18:00Z,27.4847,-97.3181,0.625,1111122 
TCOON,ioos:station:TCOON:013:1,2017-09-03T12:18:00Z,27.4847,-97.3181,0.632,1111122 
TCOON,ioos:station:TCOON:013:1,2017-09-03T13:18:00Z,27.4847,-97.3181,0.639,1111122 
TCOON,ioos:station:TCOON:013:1,2017-09-03T14:18:00Z,27.4847,-97.3181,0.645,1111122 
TCOON,ioos:station:TCOON:013:1,2017-09-03T15:18:00Z,27.4847,-97.3181,0.653,1111122 
TCOON,ioos:station:TCOON:013:1,2017-09-03T16:18:00Z,27.4847,-97.3181,0.66,1111122 
TCOON,ioos:station:TCOON:013:1,2017-09-03T17:18:00Z,27.4847,-97.3181,0.663,1111122 
TCOON,ioos:station:TCOON:013:1,2017-09-03T18:18:00Z,27.4847,-97.3181,0.665,1111122 
TCOON,ioos:station:TCOON:013:1,2017-09-03T19:18:00Z,27.4847,-97.3181,0.665,1111122 
TCOON,ioos:station:TCOON:013:1,2017-09-03T20:18:00Z,27.4847,-97.3181,0.664,1111122 
TCOON,ioos:station:TCOON:013:1,2017-09-03T21:18:00Z,27.4847,-97.3181,0.665,1111122 
TCOON,ioos:station:TCOON:013:1,2017-09-03T22:18:00Z,27.4847,-97.3181,0.664,1111122 
TCOON,ioos:station:TCOON:013:1,2017-09-03T23:18:00Z,27.4847,-97.3181,0.661,1111122 
TCOON,ioos:station:TCOON:013:1,2017-09-04T00:18:00Z,27.4847,-97.3181,0.659,1111122 
TCOON,ioos:station:TCOON:013:1,2017-09-04T01:18:00Z,27.4847,-97.3181,0.657,1111122 
TCOON,ioos:station:TCOON:013:1,2017-09-04T02:18:00Z,27.4847,-97.3181,0.657,1111122 
TCOON,ioos:station:TCOON:013:1,2017-09-04T03:18:00Z,27.4847,-97.3181,0.654,1111122 
TCOON,ioos:station:TCOON:013:1,2017-09-04T04:18:00Z,27.4847,-97.3181,0.65,1111122 
TCOON,ioos:station:TCOON:013:1,2017-09-04T05:18:00Z,27.4847,-97.3181,0.646,1111122 
TCOON,ioos:station:TCOON:013:1,2017-09-04T06:18:00Z,27.4847,-97.3181,0.639,1111122 
TCOON,ioos:station:TCOON:013:1,2017-09-04T07:18:00Z,27.4847,-97.3181,0.638,1111122 
TCOON,ioos:station:TCOON:013:1,2017-09-04T08:18:00Z,27.4847,-97.3181,0.638,1111122 
TCOON,ioos:station:TCOON:013:1,2017-09-04T09:18:00Z,27.4847,-97.3181,0.639,1111122 
TCOON,ioos:station:TCOON:013:1,2017-09-04T10:18:00Z,27.4847,-97.3181,0.638,1111122 
TCOON,ioos:station:TCOON:013:1,2017-09-04T11:18:00Z,27.4847,-97.3181,0.643,1111122 
TCOON,ioos:station:TCOON:013:1,2017-09-04T12:18:00Z,27.4847,-97.3181,0.65,1111122 
TCOON,ioos:station:TCOON:013:1,2017-09-04T13:18:00Z,27.4847,-97.3181,0.657,1111122 
TCOON,ioos:station:TCOON:013:1,2017-09-04T14:18:00Z,27.4847,-97.3181,0.664,1111122 
TCOON,ioos:station:TCOON:013:1,2017-09-04T15:18:00Z,27.4847,-97.3181,0.673,1111122 
TCOON,ioos:station:TCOON:013:1,2017-09-04T16:18:00Z,27.4847,-97.3181,0.678,1111122 
TCOON,ioos:station:TCOON:013:1,2017-09-04T17:18:00Z,27.4847,-97.3181,0.684,1111122 
TCOON,ioos:station:TCOON:013:1,2017-09-04T18:18:00Z,27.4847,-97.3181,0.687,1111122 
TCOON,ioos:station:TCOON:013:1,2017-09-04T19:18:00Z,27.4847,-97.3181,0.692,1111122 
TCOON,ioos:station:TCOON:013:1,2017-09-04T20:18:00Z,27.4847,-97.3181,0.69,1111122 
TCOON,ioos:station:TCOON:013:1,2017-09-04T21:18:00Z,27.4847,-97.3181,0.699,1111122 
TCOON,ioos:station:TCOON:013:1,2017-09-04T22:18:00Z,27.4847,-97.3181,0.697,1111122 
TCOON,ioos:station:TCOON:013:1,2017-09-05T00:18:00Z,27.4847,-97.3181,0.705,1111122 
TCOON,ioos:station:TCOON:013:1,2017-09-05T01:18:00Z,27.4847,-97.3181,0.707,1111122 
TCOON,ioos:station:TCOON:013:1,2017-09-05T02:18:00Z,27.4847,-97.3181,0.708,1111122 
TCOON,ioos:station:TCOON:013:1,2017-09-05T03:18:00Z,27.4847,-97.3181,0.707,1111122 
TCOON,ioos:station:TCOON:013:1,2017-09-05T04:18:00Z,27.4847,-97.3181,0.708,1111122 
TCOON,ioos:station:TCOON:013:1,2017-09-05T05:18:00Z,27.4847,-97.3181,0.702,1111122 
TCOON,ioos:station:TCOON:013:1,2017-09-05T06:18:00Z,27.4847,-97.3181,0.697,1111122 
TCOON,ioos:station:TCOON:013:1,2017-09-05T07:18:00Z,27.4847,-97.3181,0.694,1111122 
TCOON,ioos:station:TCOON:013:1,2017-09-05T08:18:00Z,27.4847,-97.3181,0.688,1111122 
TCOON,ioos:station:TCOON:013:1,2017-09-05T09:18:00Z,27.4847,-97.3181,0.687,1111122 
TCOON,ioos:station:TCOON:013:1,2017-09-05T10:18:00Z,27.4847,-97.3181,0.685,1111122 
TCOON,ioos:station:TCOON:013:1,2017-09-05T11:18:00Z,27.4847,-97.3181,0.684,1111122 
TCOON,ioos:station:TCOON:013:1,2017-09-05T12:18:00Z,27.4847,-97.3181,0.689,1111122 
TCOON,ioos:station:TCOON:013:1,2017-09-05T13:18:00Z,27.4847,-97.3181,0.695,1111122 
TCOON,ioos:station:TCOON:013:1,2017-09-05T14:18:00Z,27.4847,-97.3181,0.698,1111122 
TCOON,ioos:station:TCOON:013:1,2017-09-05T15:30:00Z,27.4847,-97.3181,0.708,1111122 
TCOON,ioos:station:TCOON:013:1,2017-09-05T16:18:00Z,27.4847,-97.3181,0.712,1111122 
TCOON,ioos:station:TCOON:013:1,2017-09-05T17:24:00Z,27.4847,-97.3181,0.733,1111122 
TCOON,ioos:station:TCOON:013:1,2017-09-05T18:18:00Z,27.4847,-97.3181,0.738,1111122 
TCOON,ioos:station:TCOON:013:1,2017-09-05T19:18:00Z,27.4847,-97.3181,0.722,1111122 
TCOON,ioos:station:TCOON:013:1,2017-09-05T20:18:00Z,27.4847,-97.3181,0.731,1111122 
TCOON,ioos:station:TCOON:013:1,2017-09-05T21:18:00Z,27.4847,-97.3181,0.727,1111122 
TCOON,ioos:station:TCOON:013:1,2017-09-05T22:18:00Z,27.4847,-97.3181,0.73,1111122 
TCOON,ioos:station:TCOON:013:1,2017-09-05T23:18:00Z,27.4847,-97.3181,0.731,1111122 
TCOON,ioos:station:TCOON:013:1,2017-09-06T00:18:00Z,27.4847,-97.3181,0.732,1111122 
TCOON,ioos:station:TCOON:013:1,2017-09-06T01:18:00Z,27.4847,-97.3181,0.737,1111122 
TCOON,ioos:station:TCOON:013:1,2017-09-07T14:36:00Z,27.4847,-97.3181,0.755,1111122 
TCOON,ioos:station:TCOON:013:1,2017-09-07T15:18:00Z,27.4847,-97.3181,0.756,1111122 
TCOON,ioos:station:TCOON:013:1,2017-09-07T16:18:00Z,27.4847,-97.3181,0.756,1111122 
TCOON,ioos:station:TCOON:013:1,2017-09-07T17:18:00Z,27.4847,-97.3181,0.762,1111122 
TCOON,ioos:station:TCOON:013:1,2017-09-07T18:18:00Z,27.4847,-97.3181,0.76,1111122 
TCOON,ioos:station:TCOON:013:1,2017-09-07T19:18:00Z,27.4847,-97.3181,0.762,1111122 
TCOON,ioos:station:TCOON:013:1,2017-09-07T20:18:00Z,27.4847,-97.3181,0.759,1111122 
TCOON,ioos:station:TCOON:013:1,2017-09-07T21:18:00Z,27.4847,-97.3181,0.761,1111122 
TCOON,ioos:station:TCOON:013:1,2017-09-07T22:18:00Z,27.4847,-97.3181,0.763,1111122 
TCOON,ioos:station:TCOON:013:1,2017-09-07T23:18:00Z,27.4847,-97.3181,0.764,1111122 
TCOON,ioos:station:TCOON:013:1,2017-09-08T00:18:00Z,27.4847,-97.3181,0.768,1111122 
TCOON,ioos:station:TCOON:013:1,2017-09-08T01:18:00Z,27.4847,-97.3181,0.77,1111122 
TCOON,ioos:station:TCOON:013:1,2017-09-08T02:18:00Z,27.4847,-97.3181,0.771,1111122 
TCOON,ioos:station:TCOON:013:1,2017-09-08T03:18:00Z,27.4847,-97.3181,0.775,1111122 
TCOON,ioos:station:TCOON:013:1,2017-09-08T04:18:00Z,27.4847,-97.3181,0.777,1111122 
TCOON,ioos:station:TCOON:013:1,2017-09-08T05:18:00Z,27.4847,-97.3181,0.781,1111122 
TCOON,ioos:station:TCOON:013:1,2017-09-08T06:18:00Z,27.4847,-97.3181,0.784,1111122 
TCOON,ioos:station:TCOON:013:1,2017-09-08T07:18:00Z,27.4847,-97.3181,0.787,1111122 
TCOON,ioos:station:TCOON:013:1,2017-09-08T08:18:00Z,27.4847,-97.3181,0.789,1111122 
TCOON,ioos:station:TCOON:013:1,2017-09-08T09:18:00Z,27.4847,-97.3181,0.791,1111122 
TCOON,ioos:station:TCOON:013:1,2017-09-08T10:18:00Z,27.4847,-97.3181,0.796,1111122 
TCOON,ioos:station:TCOON:013:1,2017-09-08T11:18:00Z,27.4847,-97.3181,0.801,1111122 
TCOON,ioos:station:TCOON:013:1,2017-09-08T12:18:00Z,27.4847,-97.3181,0.803,1111122 
TCOON,ioos:station:TCOON:013:1,2017-09-08T13:18:00Z,27.4847,-97.3181,0.808,1111122 
TCOON,ioos:station:TCOON:013:1,2017-09-08T14:18:00Z,27.4847,-97.3181,0.813,1111122 
TCOON,ioos:station:TCOON:013:1,2017-09-08T15:18:00Z,27.4847,-97.3181,0.815,1111122 
TCOON,ioos:station:TCOON:013:1,2017-09-08T16:18:00Z,27.4847,-97.3181,0.811,1111122 
TCOON,ioos:station:TCOON:013:1,2017-09-08T17:18:00Z,27.4847,-97.3181,0.813,1111122 
TCOON,ioos:station:TCOON:013:1,2017-09-08T18:18:00Z,27.4847,-97.3181,0.818,1111122 
TCOON,ioos:station:TCOON:013:1,2017-09-08T19:18:00Z,27.4847,-97.3181,0.818,1111122 
TCOON,ioos:station:TCOON:013:1,2017-09-08T20:18:00Z,27.4847,-97.3181,0.817,1111122 
TCOON,ioos:station:TCOON:013:1,2017-09-08T21:18:00Z,27.4847,-97.3181,0.817,1111122 
TCOON,ioos:station:TCOON:013:1,2017-09-08T22:18:00Z,27.4847,-97.3181,0.819,1111122 
TCOON,ioos:station:TCOON:013:1,2017-09-08T23:18:00Z,27.4847,-97.3181,0.821,1111122 
TCOON,ioos:station:TCOON:013:1,2017-09-09T00:18:00Z,27.4847,-97.3181,0.824,1111122 
TCOON,ioos:station:TCOON:013:1,2017-09-09T01:18:00Z,27.4847,-97.3181,0.826,1111122 
TCOON,ioos:station:TCOON:013:1,2017-09-09T02:18:00Z,27.4847,-97.3181,0.825,1111122 
TCOON,ioos:station:TCOON:013:1,2017-09-09T03:18:00Z,27.4847,-97.3181,0.827,1111122 
TCOON,ioos:station:TCOON:013:1,2017-09-09T04:18:00Z,27.4847,-97.3181,0.83,1111122 
TCOON,ioos:station:TCOON:013:1,2017-09-09T05:18:00Z,27.4847,-97.3181,0.835,1111122 
TCOON,ioos:station:TCOON:013:1,2017-09-09T06:18:00Z,27.4847,-97.3181,0.84,1111122 
TCOON,ioos:station:TCOON:013:1,2017-09-09T07:18:00Z,27.4847,-97.3181,0.843,1111122 
TCOON,ioos:station:TCOON:013:1,2017-09-09T08:18:00Z,27.4847,-97.3181,0.844,1111122 
TCOON,ioos:station:TCOON:013:1,2017-09-09T09:18:00Z,27.4847,-97.3181,0.844,1111122 
TCOON,ioos:station:TCOON:013:1,2017-09-09T10:18:00Z,27.4847,-97.3181,0.846,1111122 
TCOON,ioos:station:TCOON:013:1,2017-09-09T11:18:00Z,27.4847,-97.3181,0.849,1111122 
TCOON,ioos:station:TCOON:013:1,2017-09-09T12:18:00Z,27.4847,-97.3181,0.854,1111122 
TCOON,ioos:station:TCOON:013:1,2017-09-09T13:18:00Z,27.4847,-97.3181,0.864,1111122 
TCOON,ioos:station:TCOON:013:1,2017-09-09T14:18:00Z,27.4847,-97.3181,0.864,1111122 
TCOON,ioos:station:TCOON:013:1,2017-09-09T15:18:00Z,27.4847,-97.3181,0.872,1111122 
TCOON,ioos:station:TCOON:013:1,2017-09-09T16:18:00Z,27.4847,-97.3181,0.872,1111122 
TCOON,ioos:station:TCOON:013:1,2017-09-09T17:18:00Z,27.4847,-97.3181,0.875,1111122 
TCOON,ioos:station:TCOON:013:1,2017-09-09T18:18:00Z,27.4847,-97.3181,0.878,1111122 
TCOON,ioos:station:TCOON:013:1,2017-09-09T19:18:00Z,27.4847,-97.3181,0.879,1111122 
TCOON,ioos:station:TCOON:013:1,2017-09-09T20:18:00Z,27.4847,-97.3181,0.874,1111122 
TCOON,ioos:station:TCOON:013:1,2017-09-09T21:18:00Z,27.4847,-97.3181,0.875,1111122 
TCOON,ioos:station:TCOON:013:1,2017-09-09T22:18:00Z,27.4847,-97.3181,0.875,1111122 
TCOON,ioos:station:TCOON:013:1,2017-09-09T23:18:00Z,27.4847,-97.3181,0.875,1111122 
TCOON,ioos:station:TCOON:013:1,2017-09-10T00:18:00Z,27.4847,-97.3181,0.877,1111122 
TCOON,ioos:station:TCOON:013:1,2017-09-10T01:18:00Z,27.4847,-97.3181,0.878,1111122 
TCOON,ioos:station:TCOON:013:1,2017-09-10T02:18:00Z,27.4847,-97.3181,0.879,1111122 
TCOON,ioos:station:TCOON:013:1,2017-09-10T03:18:00Z,27.4847,-97.3181,0.881,1111122 
TCOON,ioos:station:TCOON:013:1,2017-09-10T04:18:00Z,27.4847,-97.3181,0.886,1111122 
TCOON,ioos:station:TCOON:013:1,2017-09-10T05:18:00Z,27.4847,-97.3181,0.892,1111122 
TCOON,ioos:station:TCOON:013:1,2017-09-10T06:18:00Z,27.4847,-97.3181,0.896,1111122 
TCOON,ioos:station:TCOON:013:1,2017-09-10T07:18:00Z,27.4847,-97.3181,0.9,1111122 
TCOON,ioos:station:TCOON:013:1,2017-09-10T08:18:00Z,27.4847,-97.3181,0.905,1111122 
TCOON,ioos:station:TCOON:013:1,2017-09-10T09:18:00Z,27.4847,-97.3181,0.914,1111122 
TCOON,ioos:station:TCOON:013:1,2017-09-10T10:18:00Z,27.4847,-97.3181,0.916,1111122 
TCOON,ioos:station:TCOON:013:1,2017-09-10T11:18:00Z,27.4847,-97.3181,0.922,1111122 
TCOON,ioos:station:TCOON:013:1,2017-09-10T12:18:00Z,27.4847,-97.3181,0.926,1111122 
TCOON,ioos:station:TCOON:013:1,2017-09-10T13:18:00Z,27.4847,-97.3181,0.923,1111122 
TCOON,ioos:station:TCOON:013:1,2017-09-10T14:18:00Z,27.4847,-97.3181,0.923,1111122 
TCOON,ioos:station:TCOON:013:1,2017-09-10T15:18:00Z,27.4847,-97.3181,0.92,1111122 
TCOON,ioos:station:TCOON:013:1,2017-09-10T16:18:00Z,27.4847,-97.3181,0.918,1111122 
TCOON,ioos:station:TCOON:013:1,2017-09-10T17:18:00Z,27.4847,-97.3181,0.92,1111122 
TCOON,ioos:station:TCOON:013:1,2017-09-10T18:18:00Z,27.4847,-97.3181,0.917,1111122 
TCOON,ioos:station:TCOON:013:1,2017-09-10T19:18:00Z,27.4847,-97.3181,0.91,1111122 
TCOON,ioos:station:TCOON:013:1,2017-09-10T20:24:00Z,27.4847,-97.3181,0.902,1111122 
TCOON,ioos:station:TCOON:013:1,2017-09-10T21:18:00Z,27.4847,-97.3181,0.897,1111122 
TCOON,ioos:station:TCOON:013:1,2017-09-10T22:18:00Z,27.4847,-97.3181,0.89,1111122 
TCOON,ioos:station:TCOON:013:1,2017-09-10T23:18:00Z,27.4847,-97.3181,0.881,1111122 
TCOON,ioos:station:TCOON:013:1,2017-09-11T00:18:00Z,27.4847,-97.3181,0.873,1111122 
TCOON,ioos:station:TCOON:013:1,2017-09-11T01:18:00Z,27.4847,-97.3181,0.87,1111122 
TCOON,ioos:station:TCOON:013:1,2017-09-11T02:18:00Z,27.4847,-97.3181,0.871,1111122 
TCOON,ioos:station:TCOON:013:1,2017-09-11T03:18:00Z,27.4847,-97.3181,0.881,1111122 
TCOON,ioos:station:TCOON:013:1,2017-09-11T04:18:00Z,27.4847,-97.3181,0.891,1111122 
TCOON,ioos:station:TCOON:013:1,2017-09-11T05:18:00Z,27.4847,-97.3181,0.899,1111122 
TCOON,ioos:station:TCOON:013:1,2017-09-11T06:18:00Z,27.4847,-97.3181,0.908,1111122 
TCOON,ioos:station:TCOON:013:1,2017-09-11T07:18:00Z,27.4847,-97.3181,0.918,1111122 
TCOON,ioos:station:TCOON:013:1,2017-09-11T08:18:00Z,27.4847,-97.3181,0.923,1111122 
TCOON,ioos:station:TCOON:013:1,2017-09-11T09:18:00Z,27.4847,-97.3181,0.93,1111122 
TCOON,ioos:station:TCOON:013:1,2017-09-11T10:18:00Z,27.4847,-97.3181,0.937,1111122 
TCOON,ioos:station:TCOON:013:1,2017-09-11T11:18:00Z,27.4847,-97.3181,0.942,1111122 
TCOON,ioos:station:TCOON:013:1,2017-09-11T12:18:00Z,27.4847,-97.3181,0.948,1111122 
TCOON,ioos:station:TCOON:013:1,2017-09-11T13:18:00Z,27.4847,-97.3181,0.951,1111122 
TCOON,ioos:station:TCOON:013:1,2017-09-11T14:18:00Z,27.4847,-97.3181,0.953,1111122 
TCOON,ioos:station:TCOON:013:1,2017-09-11T15:18:00Z,27.4847,-97.3181,0.954,1111122 
TCOON,ioos:station:TCOON:013:1,2017-09-11T16:18:00Z,27.4847,-97.3181,0.956,1111122 
TCOON,ioos:station:TCOON:013:1,2017-09-11T17:18:00Z,27.4847,-97.3181,0.959,1111122 
TCOON,ioos:station:TCOON:013:1,2017-09-11T18:18:00Z,27.4847,-97.3181,0.962,1111122 
TCOON,ioos:station:TCOON:013:1,2017-09-11T19:18:00Z,27.4847,-97.3181,0.956,1111122 
TCOON,ioos:station:TCOON:013:1,2017-09-11T20:18:00Z,27.4847,-97.3181,0.948,1111122 
TCOON,ioos:station:TCOON:013:1,2017-09-11T21:18:00Z,27.4847,-97.3181,0.938,1111122 
TCOON,ioos:station:TCOON:013:1,2017-09-11T22:18:00Z,27.4847,-97.3181,0.928,1111122 
TCOON,ioos:station:TCOON:013:1,2017-09-11T23:18:00Z,27.4847,-97.3181,0.92,1111122 
TCOON,ioos:station:TCOON:013:1,2017-09-12T00:18:00Z,27.4847,-97.3181,0.91,1111122 
TCOON,ioos:station:TCOON:013:1,2017-09-12T01:18:00Z,27.4847,-97.3181,0.901,1111122 
TCOON,ioos:station:TCOON:013:1,2017-09-12T02:18:00Z,27.4847,-97.3181,0.898,1111122 
TCOON,ioos:station:TCOON:013:1,2017-09-12T03:18:00Z,27.4847,-97.3181,0.902,1111122 
TCOON,ioos:station:TCOON:013:1,2017-09-12T04:18:00Z,27.4847,-97.3181,0.913,1111122 
TCOON,ioos:station:TCOON:013:1,2017-09-12T05:18:00Z,27.4847,-97.3181,0.927,1111122 
TCOON,ioos:station:TCOON:013:1,2017-09-12T06:18:00Z,27.4847,-97.3181,0.94,1111122 
TCOON,ioos:station:TCOON:013:1,2017-09-12T07:18:00Z,27.4847,-97.3181,0.952,1111122 
TCOON,ioos:station:TCOON:013:1,2017-09-12T08:18:00Z,27.4847,-97.3181,0.962,1111122 
TCOON,ioos:station:TCOON:013:1,2017-09-12T09:18:00Z,27.4847,-97.3181,0.968,1111122 
TCOON,ioos:station:TCOON:013:1,2017-09-12T10:18:00Z,27.4847,-97.3181,0.972,1111122 
TCOON,ioos:station:TCOON:013:1,2017-09-12T11:18:00Z,27.4847,-97.3181,0.977,1111122 
TCOON,ioos:station:TCOON:013:1,2017-09-12T12:18:00Z,27.4847,-97.3181,0.979,1111122 
TCOON,ioos:station:TCOON:013:1,2017-09-12T13:18:00Z,27.4847,-97.3181,0.98,1111122 
TCOON,ioos:station:TCOON:013:1,2017-09-12T14:18:00Z,27.4847,-97.3181,0.984,1111122 
TCOON,ioos:station:TCOON:013:1,2017-09-12T15:18:00Z,27.4847,-97.3181,0.983,1111122 
TCOON,ioos:station:TCOON:013:1,2017-09-12T16:18:00Z,27.4847,-97.3181,0.982,1111122 
TCOON,ioos:station:TCOON:013:1,2017-09-12T17:18:00Z,27.4847,-97.3181,0.981,1111122 
TCOON,ioos:station:TCOON:013:1,2017-09-12T18:18:00Z,27.4847,-97.3181,0.978,1111122 
TCOON,ioos:station:TCOON:013:1,2017-09-12T19:18:00Z,27.4847,-97.3181,0.968,1111122 
TCOON,ioos:station:TCOON:013:1,2017-09-12T20:18:00Z,27.4847,-97.3181,0.955,1111122 
TCOON,ioos:station:TCOON:013:1,2017-09-12T21:18:00Z,27.4847,-97.3181,0.937,1111122 
TCOON,ioos:station:TCOON:013:1,2017-09-12T22:18:00Z,27.4847,-97.3181,0.927,1111122 
TCOON,ioos:station:TCOON:013:1,2017-09-12T23:18:00Z,27.4847,-97.3181,0.915,1111122 
TCOON,ioos:station:TCOON:013:1,2017-09-13T00:18:00Z,27.4847,-97.3181,0.902,1111122 
TCOON,ioos:station:TCOON:013:1,2017-09-13T01:18:00Z,27.4847,-97.3181,0.898,1111122 
TCOON,ioos:station:TCOON:013:1,2017-09-13T02:18:00Z,27.4847,-97.3181,0.897,1111122 
TCOON,ioos:station:TCOON:013:1,2017-09-13T03:18:00Z,27.4847,-97.3181,0.896,1111122 
TCOON,ioos:station:TCOON:013:1,2017-09-13T04:18:00Z,27.4847,-97.3181,0.895,1111122 
TCOON,ioos:station:TCOON:013:1,2017-09-13T05:18:00Z,27.4847,-97.3181,0.895,1111122 
TCOON,ioos:station:TCOON:013:1,2017-09-13T06:18:00Z,27.4847,-97.3181,0.896,1111122 
TCOON,ioos:station:TCOON:013:1,2017-09-13T07:18:00Z,27.4847,-97.3181,0.899,1111122 
TCOON,ioos:station:TCOON:013:1,2017-09-13T08:18:00Z,27.4847,-97.3181,0.9,1111122 
TCOON,ioos:station:TCOON:013:1,2017-09-13T09:18:00Z,27.4847,-97.3181,0.902,1111122 
TCOON,ioos:station:TCOON:013:1,2017-09-13T10:18:00Z,27.4847,-97.3181,0.904,1111122 
TCOON,ioos:station:TCOON:013:1,2017-09-13T11:18:00Z,27.4847,-97.3181,0.903,1111122 
TCOON,ioos:station:TCOON:013:1,2017-09-13T12:18:00Z,27.4847,-97.3181,0.897,1111122 
TCOON,ioos:station:TCOON:013:1,2017-09-13T13:18:00Z,27.4847,-97.3181,0.9,1111122 
TCOON,ioos:station:TCOON:013:1,2017-09-13T14:18:00Z,27.4847,-97.3181,0.899,1111122 
TCOON,ioos:station:TCOON:013:1,2017-09-13T15:18:00Z,27.4847,-97.3181,0.901,1111122 
TCOON,ioos:station:TCOON:013:1,2017-09-13T16:18:00Z,27.4847,-97.3181,0.902,1111122 
TCOON,ioos:station:TCOON:013:1,2017-09-13T17:18:00Z,27.4847,-97.3181,0.901,1111122 
TCOON,ioos:station:TCOON:013:1,2017-09-13T18:18:00Z,27.4847,-97.3181,0.896,1111122 
TCOON,ioos:station:TCOON:013:1,2017-09-13T19:18:00Z,27.4847,-97.3181,0.894,1111122 
TCOON,ioos:station:TCOON:013:1,2017-09-13T20:18:00Z,27.4847,-97.3181,0.889,1111122 
TCOON,ioos:station:TCOON:013:1,2017-09-13T21:18:00Z,27.4847,-97.3181,0.884,1111122 
TCOON,ioos:station:TCOON:013:1,2017-09-13T22:18:00Z,27.4847,-97.3181,0.875,1111122 
TCOON,ioos:station:TCOON:013:1,2017-09-13T23:18:00Z,27.4847,-97.3181,0.866,1111122 
TCOON,ioos:station:TCOON:013:1,2017-09-14T00:18:00Z,27.4847,-97.3181,0.861,1111122 
TCOON,ioos:station:TCOON:013:1,2017-09-14T01:18:00Z,27.4847,-97.3181,0.855,1111122 
TCOON,ioos:station:TCOON:013:1,2017-09-14T02:18:00Z,27.4847,-97.3181,0.85,1111122 
TCOON,ioos:station:TCOON:013:1,2017-09-14T03:18:00Z,27.4847,-97.3181,0.844,1111122 
TCOON,ioos:station:TCOON:013:1,2017-09-14T04:18:00Z,27.4847,-97.3181,0.84,1111122 
TCOON,ioos:station:TCOON:013:1,2017-09-14T05:18:00Z,27.4847,-97.3181,0.836,1111122 
TCOON,ioos:station:TCOON:013:1,2017-09-14T06:18:00Z,27.4847,-97.3181,0.835,1111122 
TCOON,ioos:station:TCOON:013:1,2017-09-14T07:18:00Z,27.4847,-97.3181,0.835,1111122 
TCOON,ioos:station:TCOON:013:1,2017-09-14T08:18:00Z,27.4847,-97.3181,0.834,1111122 
TCOON,ioos:station:TCOON:013:1,2017-09-14T09:18:00Z,27.4847,-97.3181,0.831,1111122 
TCOON,ioos:station:TCOON:013:1,2017-09-14T10:18:00Z,27.4847,-97.3181,0.834,1111122 